Weather History for Karup, Denmark

Change the Weather History Date:

Friday, September 6, 2013

  Actual Average Record
Temperature  
Mean Temperature 68 °F -  
Max Temperature 76 °F 60 °F 80 °F (2005)
Min Temperature 59 °F 46 °F 42 °F (1996)
Cooling Degree Days 2    
Growing Degree Days 18 (Base 50)    
Moisture  
Dew Point 59 °F    
Average Humidity 76    
Maximum Humidity 100    
Minimum Humidity 49    
Precipitation  
Precipitation 0.00 in - - ()
Sea Level Pressure  
Sea Level Pressure 29.90 in    
Wind  
Wind Speed 9 mph ()    
Max Wind Speed 16 mph    
Max Gust Speed 25 mph    
Visibility 10.8 miles    
Events      
Averages and records for this station are not official NWS values.
T = Trace of Precipitation, MM = Missing Value Source: Averaged Metar Reports

Daily Weather History Graph

Daily Weather History Graph

Search for Another Location

Airport:

Trip Planner

Search our weather history database for the weather conditions in past years. The results will help you decide how hot, cold, wet, or windy it might be!

Date:

Astronomy

Sep. 06, 2013 Rise Set
Actual Time 6:37 AM CEST 8:05 PM CEST
Civil Twilight 5:58 AM CEST 8:44 PM CEST
Nautical Twilight 5:09 AM CEST 9:32 PM CEST
Astronomical Twilight 4:14 AM CEST 10:26 PM CEST
Moon 7:53 AM CEST (9/6) 7:54 PM CEST (9/6)
Length of Visible Light 14h 45m
Length of Day
13h 28m
New Moon, 1% of the Moon is Illuminated
Sep 6
New Moon
Sep 12
First Quarter
Sep 19
Full
Sep 27
Last Quarter
Oct 5
New

Hourly Weather History & Observations

Time (CEST) Temp. Dew Point Humidity Pressure Visibility Wind Dir Wind Speed Gust Speed Precip Events Conditions
12:20 AM 60.8 °F 59.0 °F 94% 29.98 in - SE 8.1 mph - N/A   Clear
12:50 AM 60.8 °F 59.0 °F 94% 29.98 in - SE 8.1 mph - N/A   Clear
1:20 AM 60.8 °F 59.0 °F 94% 29.98 in - SE 6.9 mph - N/A   Clear
1:50 AM 60.8 °F 59.0 °F 94% 29.95 in - ESE 5.8 mph - N/A   Clear
2:00 AM 60 °F 58 °F 93% 29.97 in 16 mi ESE 6.9 mph - -  
2:20 AM 60.8 °F 59.0 °F 94% 29.95 in - ESE 6.9 mph - N/A   Clear
2:50 AM 60.8 °F 59.0 °F 94% 29.95 in - ESE 6.9 mph - N/A   Clear
3:20 AM 59.0 °F 59.0 °F 100% 29.92 in - ESE 8.1 mph - N/A   Clear
3:50 AM 59.0 °F 59.0 °F 100% 29.92 in 6.2 mi ESE 6.9 mph - N/A   Partly Cloudy
4:20 AM 60.8 °F 59.0 °F 94% 29.92 in 6.2 mi ESE 8.1 mph - N/A   Scattered Clouds
4:50 AM 60.8 °F 57.2 °F 88% 29.92 in 6.2 mi ESE 8.1 mph - N/A   Scattered Clouds
5:20 AM 60.8 °F 57.2 °F 88% 29.92 in 6.2 mi ESE 8.1 mph - N/A   Partly Cloudy
5:50 AM 60.8 °F 59.0 °F 94% 29.89 in - ESE 8.1 mph - N/A   Clear
6:20 AM 60.8 °F 57.2 °F 88% 29.89 in - ESE 9.2 mph - N/A   Clear
6:50 AM 60.8 °F 59.0 °F 94% 29.89 in - ESE 8.1 mph - N/A   Clear
7:20 AM 60.8 °F 59.0 °F 94% 29.89 in - ESE 10.4 mph - N/A   Clear
7:50 AM 62.6 °F 59.0 °F 88% 29.89 in - ESE 10.4 mph - N/A   Clear
8:00 AM 62 °F 59 °F 85% 29.90 in 9 mi ESE 10.4 mph - -   Clear
8:20 AM 62.6 °F 59.0 °F 88% 29.89 in - SE 11.5 mph - N/A   Clear
8:50 AM 64.4 °F 59.0 °F 83% 29.89 in - SE 12.7 mph - N/A   Clear
9:20 AM 66.2 °F 60.8 °F 83% 29.89 in - ESE 11.5 mph - N/A   Clear
9:50 AM 68.0 °F 60.8 °F 78% 29.89 in - SE 12.7 mph - N/A   Clear
10:20 AM 69.8 °F 60.8 °F 73% 29.89 in - SE 12.7 mph - N/A   Clear
10:50 AM 71.6 °F 60.8 °F 69% 29.89 in - SE 13.8 mph - N/A   Clear
11:00 AM 71 °F 60 °F 60% 29.89 in 16 mi SE 13.8 mph - -   Clear
11:20 AM 73.4 °F 59.0 °F 61% 29.89 in - SE 16.1 mph - N/A   Clear
11:50 AM 73.4 °F 59.0 °F 61% 29.89 in - SE 15.0 mph - N/A   Clear
12:20 PM 73.4 °F 59.0 °F 61% 29.89 in - SE 15.0 mph - N/A   Clear
12:50 PM 73.4 °F 59.0 °F 61% 29.89 in - SE 15.0 mph - N/A   Clear
1:35 PM 75.2 °F 60.8 °F 61% 29.89 in - ESE 12.7 mph - N/A   Clear
1:50 PM 75.2 °F 60.8 °F 61% 29.89 in - ESE 12.7 mph - N/A   Clear
2:00 PM 76 °F 60 °F 49% 29.88 in 16 mi SE 13.8 mph - -   Clear
2:20 PM 75.2 °F 60.8 °F 61% 29.89 in - ESE 12.7 mph - N/A   Clear
2:50 PM 77.0 °F 62.6 °F 61% 29.89 in - ESE 12.7 mph - N/A   Clear
3:20 PM 77.0 °F 62.6 °F 61% 29.86 in - ESE 11.5 mph - N/A   Clear
3:50 PM 77.0 °F 62.6 °F 61% 29.86 in - ESE 13.8 mph - N/A   Clear
4:20 PM 77.0 °F 60.8 °F 57% 29.86 in - ESE 13.8 mph - N/A   Clear
4:50 PM 75.2 °F 60.8 °F 61% 29.86 in - ESE 16.1 mph - N/A   Clear
5:00 PM 75 °F 61 °F 52% 29.87 in 16 mi ESE 13.8 mph - -   Clear
5:20 PM 75.2 °F 60.8 °F 61% 29.86 in - SE 15.0 mph - N/A   Clear
5:50 PM 73.4 °F 60.8 °F 65% 29.86 in - ESE 13.8 mph - N/A   Clear
6:20 PM 73.4 °F 60.8 °F 65% 29.86 in - ESE 15.0 mph - N/A   Clear
6:50 PM 71.6 °F 60.8 °F 69% 29.89 in - ESE 15.0 mph - N/A   Clear
7:20 PM 69.8 °F 59.0 °F 68% 29.89 in - ESE 13.8 mph - N/A   Clear
7:50 PM 69.8 °F 59.0 °F 68% 29.89 in - SE 12.7 mph 24.2 mph N/A   Clear
8:00 PM 69 °F 58 °F 61% 29.91 in 12 mi ESE 11.5 mph - -   Clear
8:20 PM 68.0 °F 59.0 °F 73% 29.89 in - SE 12.7 mph - N/A   Clear
8:51 PM 68.0 °F 59.0 °F 73% 29.92 in - SE 11.5 mph - N/A   Clear
9:20 PM 66.2 °F 59.0 °F 78% 29.92 in - SE 13.8 mph 25.3 mph N/A   Clear
9:50 PM 66.2 °F 59.0 °F 78% 29.92 in - ESE 12.7 mph - N/A   Clear
10:20 PM 66.2 °F 57.2 °F 73% 29.92 in - ESE 11.5 mph - N/A   Clear
10:50 PM 66.2 °F 57.2 °F 73% 29.92 in - ESE 9.2 mph - N/A   Clear
11:00 PM 65 °F 58 °F 71% 29.94 in 9 mi ESE 9.2 mph - -   Clear
11:20 PM 64.4 °F 57.2 °F 77% 29.95 in - ESE 10.4 mph - N/A   Clear
11:50 PM 64.4 °F 57.2 °F 77% 29.95 in - ESE 9.2 mph - N/A   Clear